Startpagina
METAR-TAF:

METAR-TAF

Vliegvelden :

Euro, Nederland

Productieplatform

breedte: 51-59-52N, lengte: 3-16-30E, hoogte: 18 m

Actueel weer

Dit bericht is 34 minuten geleden gemaakt, om 14:55 UTC
Wind 16 kt uit het noordoosten met uitschieters tot 18 kt
Temperatuur 18°C
Vochtigheid 77%
Druk 1006 hPa
Zicht 10 km of meer

METAR: EHSA 271455Z AUTO 04016G18KT 9999 ///////// 18/14 Q1006 W17/H11

Tijdstip: 17:29 (15:29 UTC)


TAF: ontbreekt

Waarnemingen en weersverwachtingen van meer dan 4000 vliegvelden (METAR en TAF).

De beschikbare stations zijn de gele en rode punten op de kaart.

Ga met uw muis naar het station om de naam te zien.

Klik dan om waarnemingen en weersverwachtingen te zien.

kaart wijzigen: klik op de groene knoppen met een zwart kruis om in te zoomen, op de groene knop met een streepje om uit te zoomen of op de groene pijlen voor aangrenzende kaarten.


METAR-TAF: